[[{"header":{"parameterUnit":"m.s-1","parameterCategory":1,"la1":30.2991,"la2":30.254,"lo1":-89.0895,"lo2":-89.0444,"dy":0.0017,"dx":0.0017,"nx":28,"ny":28,"refTime":"2025-04-09T21:00:00:Z","depth":0,"parameterNumber":2,"parameterNumberName":"U-component_of_WINDS"},"data":[0,0,0,0,0,0,0,0,0,0,0,0,0,0,0,0,0,0,0,0,0,0,0,0,0,0,0,0,0,0,0,0,0,0,0,0,0,0,0,0,0,0,0,0,0,0,0,0,0,0,0,0,0,0,0,0,0,0,0.696,0.6961,0,0.7022,0.7023,0.7023,0.706,0.706,0.706,0.706,0.7128,0.7129,0.7131,0,0,0,0,0,0,0,0,0,0,0,0,0,0.6877,0.6878,0.696,0.6961,0.6962,0.7022,0.7023,0.7024,0.706,0.706,0.706,0.706,0.7127,0.7129,0.7131,0,0,0,0,0,0,0,0,0,0,0,0,0,0.6923,0.6879,0.696,0.6987,0.699,0.7022,0.7023,0.7024,0.706,0.706,0.706,0.706,0.7127,0.7129,0.7132,0.7143,0,0,0.7139,0.714,0,0,0,0,0,0,0,0,0.6921,0.6926,0.6982,0.6985,0.6988,0.7033,0.7018,0.7064,0.706,0.7033,0.706,0.7061,0.7097,0.7102,0.7113,0.7146,0.7149,0.7139,0.7141,0.7142,0.7143,0,0,0,0,0,0,0,0.6917,0.6924,0.6985,0.6983,0.6987,0.6997,0.7004,0.7027,0.7063,0.7036,0.7038,0.7045,0.7098,0.711,0.7115,0.715,0.7139,0.7142,0.7143,0.7144,0.7195,0.7195,0,0,0,0,0,0,0.6909,0.6921,0.6983,0.6987,0.6954,0.6998,0.7006,0.7019,0.7063,0.707,0.7045,0.7047,0.7106,0.7112,0.7117,0.7133,0.7142,0.7144,0.7146,0.7196,0.7195,0.7195,0,0,0,0,0,0,0.6907,0.6915,0.698,0.6955,0.6964,0.7,0.7014,0.702,0.7032,0.707,0.7077,0.705,0.7106,0.7114,0.7136,0.7136,0.7145,0.7148,0.7196,0.7195,0.7195,0.7165,0,0,0,0,0,0,0.6905,0.6914,0.6917,0.6954,0.6965,0.6997,0.7014,0.7021,0.7036,0.7038,0.7077,0.7083,0.7107,0.7132,0.7138,0.714,0.715,0.7196,0.7196,0.7195,0.7166,0.7164,0.7162,0,0,0,0,0,0.6902,0.6907,0.6917,0.6925,0.697,0.6997,0.7003,0.7029,0.7035,0.704,0.7064,0.7082,0.7135,0.7134,0.7141,0.7144,0.7196,0.7196,0.7195,0.7167,0.7165,0.7162,0,0,0,0,0,0,0.6871,0.6913,0.6924,0.6942,0.6965,0.7003,0.7009,0.7025,0.7048,0.705,0.7083,0.7091,0.711,0.7129,0.7127,0.7157,0.7167,0.7169,0.7144,0.7141,0.7139,0.7134,0.7152,0,0,0,0,0,0.6866,0.6883,0.6919,0.6931,0.6942,0.6973,0.6986,0.7004,0.703,0.704,0.7066,0.7092,0.7115,0.7129,0.7152,0.7169,0.7178,0.7174,0.7172,0.717,0.7171,0.7182,0.7181,0.7194,0.7194,0.7194,0,0,0.6857,0.6881,0.689,0.6925,0.6945,0.6963,0.6982,0.7,0.7013,0.7044,0.7066,0.7086,0.7117,0.7136,0.7147,0.7153,0.7169,0.717,0.7168,0.717,0.7181,0.718,0.7179,0.7194,0.7194,0.7194,0,0,0.6848,0.6868,0.688,0.69,0.693,0.695,0.6953,0.6988,0.7002,0.7024,0.7047,0.7065,0.7103,0.7124,0.714,0.7138,0.7156,0.7145,0.7134,0.7144,0.7143,0.7142,0.7142,0.7142,0.7146,0.7146,0.7146,0,0.6833,0.6859,0.6885,0.6901,0.6916,0.6943,0.6956,0.6974,0.701,0.7021,0.7027,0.7075,0.7098,0.7123,0.7122,0.7134,0.7139,0.7141,0.7141,0.714,0.714,0.714,0.714,0.7144,0.7144,0.7144,0.7145,0,0.6839,0.6857,0.6863,0.6896,0.6912,0.6926,0.6955,0.6968,0.6985,0.7005,0.7028,0.7056,0.7085,0.7092,0.7109,0.712,0.7123,0.7134,0.7146,0.7137,0.7138,0.7138,0.7142,0.7142,0.7143,0.7143,0,0,0.6814,0.6859,0.6861,0.6877,0.6911,0.6926,0.6942,0.6969,0.698,0.7004,0.7019,0.705,0.7061,0.7078,0.7098,0.7106,0.7104,0.7117,0.7119,0.7114,0.7118,0.7109,0.7109,0.7115,0.7115,0.7115,0.7115,0,0.681,0.6839,0.6863,0.6883,0.6901,0.6926,0.694,0.6963,0.6983,0.7001,0.7023,0.7045,0.7057,0.7068,0.7078,0.7102,0.7105,0.7102,0.7131,0.7131,0.7122,0.7109,0.71,0.7099,0.7116,0.7116,0.7116,0,0.6811,0.6832,0.6854,0.6886,0.6895,0.6907,0.6933,0.695,0.6977,0.6991,0.701,0.703,0.7049,0.7058,0.7085,0.7083,0.7096,0.7109,0.711,0.7114,0.7123,0.7113,0.7099,0.7099,0.7117,0.7117,0.7117,0,0.6791,0.6825,0.6843,0.6855,0.6893,0.6901,0.6917,0.6945,0.6959,0.6982,0.6992,0.7018,0.7032,0.7052,0.7079,0.7083,0.7104,0.7115,0.7116,0.7116,0.712,0.712,0.7108,0.7128,0.7128,0.7128,0.7128,0,0.6785,0.6797,0.6834,0.6845,0.686,0.6887,0.6901,0.692,0.6944,0.696,0.6984,0.6998,0.7032,0.7051,0.7072,0.7091,0.7098,0.711,0.7116,0.7108,0.7107,0.7118,0.7119,0.7128,0.7128,0.7128,0.7128,0,0.6765,0.679,0.6811,0.6845,0.6853,0.6863,0.6893,0.6905,0.6925,0.6945,0.6951,0.6983,0.7007,0.7035,0.7068,0.7082,0.71,0.7108,0.709,0.7093,0.7093,0.7093,0.7089,0.709,0.7108,0.7108,0.7107,0,0.676,0.677,0.6805,0.6816,0.6831,0.685,0.6864,0.6892,0.6906,0.6937,0.6946,0.697,0.6992,0.7028,0.7055,0.7081,0.709,0.7087,0.7094,0.7086,0.709,0.709,0.7091,0.7085,0.7085,0.7084,0.7084,0,0.6749,0.676,0.6779,0.6803,0.6819,0.6839,0.686,0.6869,0.6901,0.6916,0.6939,0.6955,0.6988,0.7013,0.7041,0.706,0.7077,0.7081,0.7083,0.7076,0.7065,0.7071,0.7085,0.7081,0.7082,0.7082,0.7082,0.7082,0.6737,0.6747,0.6772,0.6793,0.6811,0.683,0.6843,0.6864,0.6884,0.6912,0.6927,0.695,0.6977,0.7017,0.7035,0.7054,0.706,0.7063,0.7064,0.7064,0.7062,0.7061,0.7059,0.7059,0.7059,0.706,0.706,0,0.6727,0.6744,0.6763,0.6791,0.6807,0.6821,0.6845,0.6858,0.6877,0.6901,0.6921,0.6948,0.6971,0.7,0.7026,0.7036,0.7044,0.7042,0.7042,0.7046,0.7054,0.705,0.7034,0.7034,0.7034,0.7034,0.7034,0.7034,0.6724,0.6741,0.6756,0.6783,0.6801,0.6822,0.6835,0.6853,0.6871,0.69,0.6919,0.6937,0.6963,0.699,0.7013,0.7021,0.703,0.7024,0.7035,0.7043,0.7045,0.7047,0.7043,0.7026,0.7026,0.7024,0.7024,0.7024]},{"header":{"parameterUnit":"m.s-1","parameterCategory":1,"la1":30.2991,"la2":30.254,"lo1":-89.0895,"lo2":-89.0444,"dy":0.0017,"dx":0.0017,"nx":28,"ny":28,"refTime":"2025-04-09T21:00:00:Z","depth":0,"parameterNumber":3,"parameterNumberName":"V-component_of_WINDS"},"data":[0,0,0,0,0,0,0,0,0,0,0,0,0,0,0,0,0,0,0,0,0,0,0,0,0,0,0,0,0,0,0,0,0,0,0,0,0,0,0,0,0,0,0,0,0,0,0,0,0,0,0,0,0,0,0,0,0,0,2.0888,2.0888,0,2.0895,2.0896,2.0896,2.0847,2.0846,2.0845,2.0844,2.0847,2.0849,2.085,0,0,0,0,0,0,0,0,0,0,0,0,0,2.0825,2.0826,2.0888,2.0888,2.0888,2.0895,2.0896,2.0896,2.0848,2.0846,2.0844,2.0843,2.0847,2.0849,2.085,0,0,0,0,0,0,0,0,0,0,0,0,0,2.0844,2.0827,2.0888,2.0865,2.0863,2.0895,2.0896,2.0896,2.0848,2.0846,2.0844,2.0842,2.0846,2.0848,2.085,2.0904,0,0,2.0857,2.0858,0,0,0,0,0,0,0,0,2.0843,2.0847,2.0869,2.0867,2.0865,2.0869,2.0875,2.0898,2.0849,2.0854,2.0843,2.0841,2.0856,2.0857,2.0863,2.0904,2.0904,2.0857,2.0858,2.0859,2.086,0,0,0,0,0,0,0,2.0842,2.0846,2.0891,2.0869,2.0867,2.0852,2.0853,2.0879,2.0866,2.0853,2.085,2.0851,2.0854,2.0861,2.0862,2.0904,2.0857,2.0859,2.086,2.0861,2.098,2.0982,0,0,0,0,0,0,2.0845,2.0845,2.0891,2.0891,2.0849,2.0855,2.0856,2.0869,2.0866,2.0863,2.0853,2.0849,2.0858,2.086,2.0862,2.0919,2.0859,2.0861,2.0862,2.0978,2.0981,2.0983,0,0,0,0,0,0,2.0843,2.0849,2.089,2.0867,2.0871,2.0858,2.0874,2.0871,2.0877,2.0866,2.0862,2.0863,2.0857,2.0859,2.0892,2.0918,2.0862,2.0864,2.0976,2.0979,2.0982,2.1036,0,0,0,0,0,0,2.0842,2.0849,2.0872,2.0868,2.0873,2.0923,2.0876,2.0872,2.0881,2.0876,2.0874,2.0871,2.0855,2.0889,2.0894,2.092,2.0865,2.0974,2.0977,2.0981,2.1031,2.104,2.1047,0,0,0,0,0,2.084,2.0887,2.0873,2.0879,2.0901,2.0925,2.0927,2.0909,2.0884,2.0904,2.0895,2.0871,2.0915,2.0893,2.0898,2.0925,2.0972,2.0976,2.0981,2.1028,2.1038,2.1047,0,0,0,0,0,0,2.0895,2.0887,2.0871,2.0919,2.0923,2.0916,2.0942,2.0922,2.0932,2.0927,2.0902,2.0902,2.0937,2.0935,2.091,2.0972,2.0938,2.0944,2.0973,2.0983,2.0991,2.0989,2.0867,0,0,0,0,0,2.0913,2.0934,2.0925,2.0969,2.0971,2.0956,2.0966,2.0951,2.0954,2.0955,2.0949,2.0951,2.0964,2.0973,2.0986,2.1031,2.1026,2.1051,2.1059,2.1066,2.107,2.1087,2.1097,2.0997,2.0997,2.0997,0,0,2.095,2.0948,2.0963,2.0979,2.0981,2.1,2.0958,2.0983,2.0995,2.0958,2.0987,2.0983,2.0982,2.102,2.1036,2.1019,2.1097,2.1072,2.1077,2.1078,2.1093,2.1102,2.111,2.1,2.1,2.0999,0,0,2.1026,2.1029,2.1062,2.1063,2.1065,2.1053,2.1061,2.1057,2.1052,2.1081,2.1051,2.1065,2.1091,2.109,2.1093,2.1161,2.1137,2.1166,2.1207,2.1224,2.1232,2.1238,2.1258,2.1266,2.1171,2.1171,2.1171,0,2.1072,2.1102,2.1082,2.1106,2.1111,2.1078,2.1108,2.111,2.1115,2.1118,2.1099,2.1125,2.1124,2.1157,2.1173,2.1178,2.1182,2.1166,2.1233,2.1239,2.1245,2.1263,2.1271,2.1174,2.1174,2.1173,2.1173,0,2.1154,2.1175,2.1202,2.1206,2.1214,2.1242,2.1223,2.1233,2.1216,2.1205,2.1231,2.1227,2.1235,2.1242,2.1227,2.1271,2.126,2.1237,2.1202,2.1258,2.1274,2.1281,2.1179,2.1177,2.1176,2.1176,0,0,2.1268,2.1257,2.1267,2.1265,2.1262,2.1276,2.1299,2.1307,2.1313,2.1317,2.1332,2.1352,2.1328,2.1332,2.1315,2.133,2.1378,2.1305,2.1304,2.1315,2.142,2.1435,2.1444,2.1362,2.1364,2.1365,2.1418,0,2.1339,2.1379,2.1359,2.1401,2.1416,2.1381,2.14,2.1398,2.1388,2.1397,2.1385,2.1397,2.1368,2.1369,2.1382,2.137,2.1398,2.1366,2.1373,2.1373,2.1371,2.1453,2.147,2.1521,2.1425,2.1426,2.1427,0,2.1428,2.1432,2.1475,2.1462,2.1468,2.1486,2.1487,2.1499,2.1493,2.1483,2.1484,2.1462,2.1479,2.1446,2.1467,2.1445,2.1446,2.144,2.1441,2.1439,2.1402,2.1449,2.1538,2.1544,2.1438,2.1437,2.1436,0,2.15,2.1517,2.1543,2.1544,2.1531,2.1543,2.1538,2.1531,2.1534,2.1535,2.1536,2.1539,2.154,2.1541,2.1518,2.1497,2.154,2.1506,2.1529,2.1529,2.1538,2.1538,2.1624,2.1545,2.1545,2.1544,2.1544,0,2.1579,2.1605,2.1575,2.1591,2.1617,2.1591,2.1617,2.1608,2.1601,2.1611,2.1582,2.1592,2.1563,2.1569,2.1551,2.1568,2.1569,2.1559,2.1554,2.156,2.1561,2.1559,2.1554,2.1546,2.1546,2.1546,2.1545,0,2.1664,2.1646,2.167,2.1655,2.1651,2.1671,2.1656,2.1668,2.1653,2.1667,2.1668,2.1646,2.165,2.1628,2.1629,2.1617,2.1641,2.1631,2.1642,2.1638,2.1661,2.1657,2.1747,2.1755,2.1674,2.1675,2.1675,0,2.1715,2.1733,2.1718,2.1723,2.1719,2.1728,2.173,2.1704,2.1707,2.1699,2.1711,2.1713,2.1713,2.1721,2.1703,2.1702,2.1689,2.1721,2.1689,2.1693,2.1685,2.1682,2.1682,2.1727,2.1728,2.1729,2.1729,0,2.1804,2.1792,2.1798,2.1797,2.1801,2.18,2.1797,2.1802,2.1773,2.1777,2.1781,2.1781,2.178,2.178,2.1775,2.1766,2.1741,2.1739,2.1744,2.1749,2.1754,2.1747,2.1656,2.1737,2.1736,2.1736,2.1735,2.1735,2.187,2.1883,2.1873,2.1877,2.1871,2.1868,2.1876,2.1862,2.1865,2.1862,2.1846,2.1851,2.1839,2.1829,2.1822,2.1824,2.1809,2.1817,2.1818,2.1819,2.1821,2.1755,2.1823,2.1823,2.1823,2.1823,2.1822,0,2.1954,2.1945,2.1949,2.1944,2.1946,2.1923,2.1917,2.1919,2.1925,2.1916,2.1916,2.1917,2.1916,2.1896,2.1892,2.1896,2.1884,2.1896,2.1894,2.1891,2.1838,2.1832,2.1905,2.1905,2.1905,2.1905,2.1905,2.1905,2.1998,2.2016,2.2002,2.2015,2.2005,2.201,2.2007,2.2002,2.1994,2.1997,2.1996,2.1983,2.1968,2.1961,2.1958,2.1952,2.1949,2.1964,2.1954,2.1904,2.1896,2.1888,2.1882,2.1965,2.1965,2.2006,2.2007,2.2007]}]]